TimeEST,TemperatureF,Dew PointF,Humidity,Sea Level PressureIn,VisibilityMPH,Wind Direction,Wind SpeedMPH,Gust SpeedMPH,PrecipitationIn,Events,Conditions,WindDirDegrees,DateUTC
12:35 AM,30.2,26.6,86,30.14,-9999.0,SSE,4.6,-,N/A,,Overcast,150,2012-12-28 05:35:00
12:55 AM,30.2,26.6,86,30.14,-9999.0,SSE,4.6,-,N/A,,Overcast,160,2012-12-28 05:55:00
1:15 AM,30.2,26.6,86,30.13,-9999.0,SSE,3.5,-,N/A,,Overcast,150,2012-12-28 06:15:00
1:35 AM,30.2,26.6,86,30.12,-9999.0,ESE,3.5,-,N/A,,Overcast,120,2012-12-28 06:35:00
1:55 AM,30.2,26.6,86,30.13,-9999.0,East,3.5,-,N/A,,Overcast,100,2012-12-28 06:55:00
2:15 AM,30.2,26.6,86,30.13,-9999.0,East,4.6,-,N/A,,Overcast,80,2012-12-28 07:15:00
2:35 AM,30.2,26.6,86,30.12,-9999.0,East,5.8,-,N/A,,Overcast,80,2012-12-28 07:35:00
2:55 AM,30.2,26.6,86,30.11,-9999.0,East,5.8,-,N/A,,Overcast,90,2012-12-28 07:55:00
3:15 AM,30.2,26.6,86,30.11,-9999.0,ESE,5.8,-,N/A,,Overcast,110,2012-12-28 08:15:00
3:35 AM,30.2,26.6,86,30.11,-9999.0,SE,4.6,-,N/A,,Overcast,130,2012-12-28 08:35:00
3:55 AM,30.2,26.6,86,30.11,-9999.0,ESE,3.5,-,N/A,,Overcast,120,2012-12-28 08:55:00
4:15 AM,30.2,26.6,86,30.11,-9999.0,ESE,3.5,-,N/A,,Overcast,110,2012-12-28 09:15:00
4:55 AM,30.2,26.6,86,30.09,-9999.0,East,4.6,-,N/A,,Overcast,100,2012-12-28 09:55:00
5:15 AM,30.2,26.6,86,30.09,-9999.0,East,3.5,-,N/A,,Overcast,90,2012-12-28 10:15:00
5:35 AM,30.2,26.6,86,30.09,-9999.0,East,5.8,-,N/A,,Overcast,100,2012-12-28 10:35:00
5:55 AM,30.2,26.6,86,30.08,-9999.0,ESE,6.9,-,N/A,,Overcast,120,2012-12-28 10:55:00
6:15 AM,30.2,26.6,86,30.07,-9999.0,SE,8.1,-,N/A,,Overcast,140,2012-12-28 11:15:00
6:35 AM,30.2,24.8,80,30.06,-9999.0,ESE,9.2,-,N/A,,Overcast,120,2012-12-28 11:35:00
6:55 AM,30.2,24.8,80,30.09,-9999.0,SE,5.8,-,N/A,,Overcast,140,2012-12-28 11:55:00
7:15 AM,30.2,24.8,80,30.10,-9999.0,South,4.6,-,N/A,,Overcast,170,2012-12-28 12:15:00
7:35 AM,30.2,24.8,80,30.12,-9999.0,SSE,5.8,-,N/A,,Overcast,160,2012-12-28 12:35:00
7:55 AM,30.2,24.8,80,30.12,-9999.0,SSE,4.6,-,N/A,,Overcast,160,2012-12-28 12:55:00
8:15 AM,30.2,24.8,80,30.11,-9999.0,SE,5.8,-,N/A,,Overcast,140,2012-12-28 13:15:00
8:55 AM,30.2,24.8,80,30.11,-9999.0,ESE,4.6,-,N/A,,Overcast,120,2012-12-28 13:55:00
9:15 AM,30.2,24.8,80,30.12,-9999.0,ESE,3.5,-,N/A,,Overcast,110,2012-12-28 14:15:00
9:35 AM,30.2,24.8,80,30.12,-9999.0,East,4.6,-,N/A,,Overcast,100,2012-12-28 14:35:00
9:55 AM,30.2,26.6,86,30.12,-9999.0,ESE,4.6,-,N/A,,Overcast,110,2012-12-28 14:55:00
10:35 AM,32.0,26.6,80,30.12,-9999.0,SE,9.2,-,N/A,,Overcast,130,2012-12-28 15:35:00
10:55 AM,32.0,26.6,80,30.11,-9999.0,SE,9.2,-,N/A,,Overcast,130,2012-12-28 15:55:00
11:15 AM,32.0,26.6,80,30.10,-9999.0,ESE,10.4,-,N/A,,Mostly Cloudy,120,2012-12-28 16:15:00
11:55 AM,32.0,26.6,80,30.06,-9999.0,ESE,8.1,-,N/A,,Mostly Cloudy,120,2012-12-28 16:55:00
12:15 PM,33.8,26.6,75,30.05,-9999.0,SE,10.4,-,N/A,,Scattered Clouds,130,2012-12-28 17:15:00
12:35 PM,33.8,28.4,81,30.02,-9999.0,East,9.2,-,N/A,,Partly Cloudy,100,2012-12-28 17:35:00
1:15 PM,-9999,-9999,N/A,29.99,-9999.0,ESE,9.2,-,N/A,,Unknown,120,2012-12-28 18:15:00
1:35 PM,33.8,28.4,81,29.99,-9999.0,SE,8.1,-,N/A,,Scattered Clouds,140,2012-12-28 18:35:00
1:55 PM,33.8,28.4,81,29.98,-9999.0,SE,5.8,-,N/A,,Mostly Cloudy,140,2012-12-28 18:55:00
2:15 PM,35.6,28.4,75,29.97,-9999.0,SE,6.9,-,N/A,,Overcast,140,2012-12-28 19:15:00
2:55 PM,35.6,28.4,75,29.96,-9999.0,ESE,4.6,-,N/A,,Overcast,120,2012-12-28 19:55:00
3:35 PM,35.6,28.4,75,29.95,-9999.0,ESE,5.8,-,N/A,,Overcast,120,2012-12-28 20:35:00
3:55 PM,35.6,28.4,75,29.95,-9999.0,East,6.9,-,N/A,,Mostly Cloudy,90,2012-12-28 20:55:00
4:55 PM,33.8,28.4,81,29.92,-9999.0,ENE,6.9,-,N/A,,Partly Cloudy,60,2012-12-28 21:55:00
5:15 PM,33.8,28.4,81,29.93,-9999.0,ENE,4.6,-,N/A,,Partly Cloudy,60,2012-12-28 22:15:00
5:35 PM,33.8,28.4,81,29.93,-9999.0,NE,5.8,-,N/A,,Mostly Cloudy,50,2012-12-28 22:35:00
5:55 PM,33.8,28.4,81,29.91,-9999.0,ENE,6.9,-,N/A,,Overcast,60,2012-12-28 22:55:00
6:15 PM,33.8,28.4,81,29.91,-9999.0,ENE,8.1,-,N/A,,Overcast,60,2012-12-28 23:15:00
6:35 PM,33.8,28.4,81,29.90,-9999.0,ENE,8.1,-,N/A,,Overcast,60,2012-12-28 23:35:00
6:55 PM,33.8,28.4,81,29.90,-9999.0,ENE,8.1,-,N/A,,Overcast,70,2012-12-28 23:55:00
7:35 PM,33.8,28.4,81,29.87,-9999.0,ENE,9.2,-,N/A,,Overcast,70,2012-12-29 00:35:00
8:15 PM,33.8,28.4,81,29.87,-9999.0,NNE,6.9,-,N/A,,Overcast,30,2012-12-29 01:15:00
8:35 PM,32.0,28.4,87,29.87,-9999.0,NE,5.8,-,N/A,,Overcast,50,2012-12-29 01:35:00
9:55 PM,32.0,30.2,93,29.85,-9999.0,NE,6.9,-,N/A,,Overcast,40,2012-12-29 02:55:00
10:15 PM,32.0,30.2,93,29.85,-9999.0,NE,6.9,-,N/A,,Unknown,50,2012-12-29 03:15:00
10:35 PM,32.0,30.2,93,29.84,-9999.0,NE,6.9,-,N/A,,Unknown,50,2012-12-29 03:35:00
10:55 PM,32.0,30.2,93,29.81,-9999.0,NE,9.2,-,0.03,,Unknown,40,2012-12-29 03:55:00
11:15 PM,32.0,30.2,93,29.80,-9999.0,NE,8.1,-,0.01,,Overcast,40,2012-12-29 04:15:00
11:35 PM,32.0,30.2,93,29.79,-9999.0,NNE,8.1,-,0.03,,Overcast,30,2012-12-29 04:35:00
11:55 PM,32.0,30.2,93,29.79,-9999.0,North,9.2,-,0.05,,Overcast,360,2012-12-29 04:55:00